Temperature
20 20 20 20 20 19 19 19 19 19 19 19 18 18 18 18 18 18 18 18 17 17 17 17 17 17 17 17 17 16 16 16 16 16 16 16 15 15 15 15 15 15 15
20 20 20 19 19 19 19 19 19 19 19 18 18 18 18 18 18 17 17 17 17 17 17 17 17 16 16 16 16 16 16 16 16 15 15 15 15 15 15 15 15 15 15
20 20 19 19 19 19 19 19 19 19 18 18 18 18 17 17 17 17 17 17 17 17 16 16 16 16 16 16 16 16 16 16 16 15 15 15 15 15 15 15 14 14 15
20 19 19 19 19 19 19 19 19 18 18 18 18 17 17 17 17 17 17 16 16 16 16 16 16 16 16 15 15 15 15 15 15 15 15 15 14 14 14 14 14 14 14
20 19 19 19 19 19 18 18 18 18 18 17 17 17 17 17 17 17 16 16 16 16 16 15 15 15 15 15 15 15 15 15 15 14 14 14 14 14 14 14 14 14 14
20 19 19 19 19 18 18 18 18 18 17 17 17 17 17 16 16 16 16 16 16 15 15 15 15 15 15 15 15 15 15 14 14 14 14 14 14 14 14 14 14 14 14
19 19 19 19 18 18 18 18 18 17 17 17 17 17 17 16 16 16 16 16 15 15 15 15 15 15 15 15 15 14 14 14 14 14 14 14 14 14 13 14 13 13 14
19 19 19 18 18 18 18 18 17 17 17 17 17 17 16 16 16 16 16 16 15 15 15 15 15 15 15 15 14 14 14 14 14 14 14 14 13 13 13 13 13 13 13
19 19 18 18 18 18 17 17 17 17 17 16 16 16 16 16 16 16 16 15 15 15 15 15 15 15 14 14 14 14 14 14 14 13 13 13 13 13 13 13 13 13 13
18 18 18 18 18 18 17 17 17 17 16 16 16 16 16 16 16 15 15 15 15 15 15 14 14 14 14 14 14 14 13 13 13 13 13 13 13 13 13 13 13 13 13
18 18 18 18 18 17 17 17 16 16 16 16 16 16 16 16 15 15 15 15 14 14 14 14 14 14 14 14 14 13 13 13 13 13 13 13 13 13 13 13 13 12 12
18 17 17 17 17 17 17 16 16 16 16 16 16 16 15 15 15 15 15 14 14 14 14 14 14 14 14 14 13 13 13 13 13 13 13 13 13 13 12 12 12 12 12
17 17 17 16 16 16 16 16 16 16 16 15 15 15 15 15 15 15 14 14 14 14 13 13 13 13 13 13 13 13 13 13 12 12 12 12 12 12 12 12 12 12 12
16 16 16 16 16 16 16 16 16 16 15 15 15 15 15 14 14 14 14 14 13 13 13 13 13 13 13 13 13 13 12 12 12 12 12 12 12 12 12 12 12 12 12
16 16 16 16 16 16 16 16 15 15 15 15 15 15 14 14 14 14 14 13 13 13 13 13 13 13 13 13 13 12 12 12 12 12 12 12 12 12 12 12 12 12 12
15 15 15 15 15 15 15 15 15 15 15 15 15 15 14 14 14 13 13 13 13 13 13 12 12 12 12 12 12 12 12 12 12 11 11 12 12 12 12 12 12 12 11
15 15 15 15 15 15 15 15 15 14 14 14 14 14 14 14 13 13 13 13 13 12 12 12 12 12 12 12 12 12 12 12 11 11 11 11 11 11 11 11 11 11 11
15 15 15 15 15 15 15 14 14 14 14 14 14 14 14 13 13 13 13 12 12 12 12 12 12 12 12 12 12 12 11 11 11 11 11 11 11 11 11 11 11 11 11
15 15 15 15 14 14 14 14 14 14 14 14 14 13 13 13 13 13 12 12 12 12 12 12 12 12 12 12 11 11 11 11 11 11 11 10 10 10 10 11 11 11 11
15 15 15 14 14 14 14 14 14 14 14 14 13 13 13 13 13 12 12 12 12 12 12 11 11 11 11 11 11 11 11 11 11 10 10 10 10 10 10 10 10 10 11
14 14 14 14 14 14 14 14 14 14 14 13 13 13 13 13 13 12 12 12 12 11 11 11 11 11 11 11 11 11 10 10 10 10 10 10 10 10 10 10 10 10 10
14 14 14 14 14 14 14 14 14 14 13 13 13 13 13 12 12 12 12 12 11 11 11 11 11 11 11 11 11 10 10 10 10 10 10 10 10 10 10 10 10 10 10
14 14 14 14 14 14 14 13 13 13 13 13 13 12 12 12 12 12 11 11 11 11 11 11 11 11 10 11 11 10 10 10 10 10 10 10 10 10 9 9 10 10 10
13 13 13 13 13 13 13 13 13 13 13 12 12 12 12 12 11 11 11 11 11 11 10 10 10 10 10 10 10 10 10 10 10 10 10 10 9 9 9 9 9 9 9
13 13 13 13 13 13 13 13 12 12 12 12 12 11 11 11 11 11 10 10 10 10 10 10 10 10 10 10 10 10 10 10 10 10 10 9 9 9 9 9 9 9 9
13 13 13 12 12 12 12 12 12 12 12 11 11 11 11 11 10 10 10 10 10 10 10 10 10 10 10 10 10 10 10 10 10 9 9 9 9 9 9 9 9 9 9
Wind_Speed
8 7 6 6 6 5 4 3 2 2 2 2 2 2 2 2 2 2 2 1 1 1 2 1 1 2 2 2 1 1 1 0 1 1 0 0 0 0 2 4 5 7 7
8 7 6 6 6 6 5 4 3 3 2 3 3 3 3 3 2 2 2 2 1 2 1 1 1 1 1 2 2 1 1 1 1 1 1 1 1 1 2 3 4 5 6
9 8 7 6 6 5 5 4 4 3 3 2 2 2 3 2 2 2 2 2 2 1 1 1 1 1 1 1 2 2 2 2 1 1 2 1 1 2 1 3 3 2 5
9 8 7 6 5 5 4 4 4 4 3 3 3 3 3 3 2 3 2 2 2 2 2 2 2 1 0 2 2 2 3 2 2 1 2 2 1 1 1 2 2 2 3
7 8 7 6 5 5 5 4 4 4 4 3 3 3 3 3 3 3 4 4 3 3 3 2 2 1 1 1 2 2 2 2 2 2 2 2 1 1 2 2 2 2 3
5 6 6 6 6 5 5 5 4 3 3 3 3 3 4 4 2 2 3 3 3 3 3 2 2 3 2 2 2 3 3 3 2 2 2 3 2 2 2 3 2 2 3
5 5 5 5 5 5 5 4 4 4 3 3 3 2 2 2 2 2 3 4 4 4 3 3 4 3 2 2 4 4 4 4 4 4 3 4 4 3 3 4 4 4 4
5 5 4 4 4 4 3 3 4 3 3 3 2 3 2 2 3 3 4 4 4 4 4 4 3 3 3 2 3 2 3 3 4 3 4 5 4 3 4 5 5 4 4
5 5 5 4 4 4 4 4 3 3 3 3 2 3 2 2 3 3 4 4 4 4 4 3 3 3 1 1 2 3 3 3 4 3 4 4 4 4 3 2 3 3 4
4 4 4 4 4 4 4 3 3 3 3 3 3 2 2 2 4 4 3 3 3 3 2 2 2 2 1 1 2 3 3 3 3 4 4 4 4 4 5 4 3 3 3
3 3 3 3 4 4 4 4 4 4 4 4 3 3 3 3 5 5 3 2 3 3 2 1 1 2 1 2 3 3 4 4 4 4 4 3 3 2 3 3 3 3 3
3 3 3 3 4 4 3 3 4 5 5 5 4 4 3 3 4 5 6 5 3 3 3 1 1 2 2 4 4 5 6 5 4 3 2 2 2 2 2 3 3 3 3
3 3 3 3 2 2 3 4 4 4 4 4 3 3 3 3 4 5 4 4 4 3 2 2 1 3 4 4 5 6 5 4 3 3 2 2 2 2 2 2 2 3 4
3 2 2 3 3 2 2 3 3 2 2 1 2 2 2 2 2 2 2 2 2 2 1 1 3 5 5 4 3 4 4 4 3 3 3 3 2 2 2 2 2 2 2
3 2 3 3 2 2 2 1 2 1 2 3 2 2 2 2 3 4 3 2 1 1 1 2 3 3 2 3 3 3 3 3 3 3 2 3 2 2 2 1 2 2 2
4 3 3 3 3 3 3 1 3 1 2 3 3 2 2 3 6 4 3 2 2 2 2 4 4 4 3 3 3 3 3 2 2 2 2 2 3 2 2 2 2 2 2
3 3 3 3 3 4 3 3 2 0 1 1 2 3 4 5 5 4 4 2 3 3 3 5 4 4 4 4 3 3 3 2 2 3 3 3 3 3 2 2 2 2 2
4 4 4 3 3 4 4 3 3 3 3 2 2 5 6 7 7 6 4 2 3 4 5 5 4 4 3 3 3 2 2 2 2 3 3 3 3 3 2 3 2 3 3
3 3 3 3 4 3 3 3 3 3 3 3 2 2 5 6 6 6 5 4 4 4 4 4 4 4 3 2 1 1 2 2 2 3 3 3 3 3 3 3 3 4 4
3 3 3 3 3 3 3 4 3 3 3 3 3 3 3 4 3 4 4 5 4 4 4 3 3 2 2 2 1 1 2 3 3 3 3 3 3 3 4 4 3 3 3
3 3 4 3 3 2 3 3 3 2 2 2 2 3 5 4 4 4 4 4 3 3 3 3 2 2 2 2 2 3 3 3 3 3 3 3 3 3 3 4 4 3 3
3 2 3 3 2 2 2 3 2 2 2 2 2 2 5 4 3 3 2 2 2 2 2 2 2 2 2 2 2 3 3 3 3 2 3 3 3 4 4 3 3 3 4
3 3 2 2 2 2 2 2 2 2 2 2 2 2 2 3 2 1 2 1 1 1 1 1 2 2 2 1 1 2 3 3 3 2 3 4 4 3 4 4 4 4 3
3 3 2 2 1 1 2 1 2 2 2 2 1 1 1 1 2 2 2 1 1 1 1 1 2 3 3 2 2 2 1 2 2 2 4 4 5 4 4 4 4 4 3
3 2 1 1 1 1 1 1 1 1 1 1 1 1 1 1 2 2 1 1 2 2 2 1 1 2 3 4 4 3 2 2 1 2 3 4 5 4 4 4 4 4 3
2 1 1 0 1 1 1 1 1 1 1 2 1 1 1 1 2 2 2 2 2 2 2 1 1 1 2 2 3 3 2 2 2 3 3 3 4 3 4 4 4 4 4
Wind_Direction
172 171 166 174 181 180 183 180 178 189 181 177 181 183 178 184 198 199 237 225 241 278 285 304 313 329 339 334 344 333 336 2 236 294 339 320 1 88 160 194 199 188 191
170 166 171 173 176 180 179 176 181 188 193 177 180 193 202 199 194 213 242 233 235 262 275 288 294 309 335 339 341 330 323 302 188 246 260 244 257 224 206 223 215 208 200
171 169 172 183 181 183 176 174 177 182 190 184 185 206 222 213 209 223 235 246 236 242 246 255 271 287 327 338 322 323 316 314 280 234 252 249 255 243 233 251 235 215 228
166 170 178 187 178 178 173 174 179 184 192 189 197 215 227 213 222 233 232 242 243 254 267 259 257 256 288 289 287 308 307 306 290 253 250 256 250 256 238 249 258 244 247
162 169 178 178 173 175 175 176 181 193 200 191 205 220 230 225 227 228 234 229 227 235 244 255 254 128 45 304 282 296 294 286 283 275 267 281 279 300 273 267 268 264 255
157 164 167 173 174 180 179 178 182 196 198 203 215 224 234 243 214 199 230 244 243 243 242 242 226 196 208 240 261 271 256 251 264 278 277 282 280 286 286 279 281 281 271
160 161 166 171 171 176 183 176 181 195 202 210 222 231 235 228 191 205 244 247 243 236 234 241 255 247 200 234 250 250 257 255 238 247 268 278 277 271 268 274 270 270 266
165 165 165 174 176 176 181 192 194 196 205 211 213 225 227 229 212 223 244 243 247 241 235 233 234 246 239 256 272 266 260 266 254 238 243 259 267 262 255 256 262 264 263
171 176 176 181 188 191 197 204 198 195 209 213 201 205 208 214 203 221 239 253 247 248 238 229 218 219 178 262 261 268 275 274 274 263 253 250 245 253 260 271 272 271 277
187 185 184 186 196 201 196 194 197 200 206 207 203 200 206 186 181 199 219 263 263 262 244 224 160 149 153 290 275 278 279 284 292 284 270 262 249 246 237 228 252 273 282
172 178 184 188 200 200 197 199 207 208 209 210 211 205 199 189 177 185 196 258 290 294 279 251 169 151 193 252 270 267 267 283 282 274 264 247 245 242 234 224 235 252 262
170 179 186 198 221 207 193 206 217 213 216 214 208 208 190 173 171 185 198 220 271 296 296 299 184 200 242 257 258 257 268 280 274 273 279 276 267 256 253 239 227 232 235
173 189 197 203 213 196 198 216 225 220 225 223 205 203 185 155 144 151 185 220 247 268 314 1 282 246 262 257 245 245 253 257 261 262 265 270 268 253 253 253 238 228 239
176 193 198 206 205 189 219 239 239 232 225 231 219 219 199 148 135 136 162 193 219 242 291 313 283 262 254 253 252 244 239 248 246 252 260 264 265 260 254 252 253 247 259
181 202 217 225 206 193 211 262 250 220 216 219 241 235 221 205 176 171 184 211 228 232 271 262 262 255 237 232 242 243 239 245 259 270 278 283 282 282 283 291 280 264 261
201 213 227 223 207 208 199 203 25 45 144 167 183 186 182 161 159 168 183 204 225 213 228 253 254 251 246 242 242 238 243 249 254 268 272 276 282 282 282 291 300 285 270
220 220 230 227 213 214 211 204 198 272 110 148 195 190 185 182 183 192 203 225 250 221 233 248 251 250 248 247 240 238 244 249 255 260 264 267 272 278 281 286 283 284 274
224 219 225 224 228 220 215 222 217 208 202 222 232 208 198 197 204 208 200 208 248 229 238 252 256 251 248 253 256 253 247 247 249 260 265 270 271 270 270 269 264 269 277
229 224 217 227 234 227 224 225 226 220 210 200 190 209 202 203 212 219 206 225 244 252 253 257 265 265 259 257 270 272 261 252 252 255 257 258 264 268 265 262 260 261 263
220 220 231 235 237 233 226 224 224 223 221 212 203 196 185 201 222 215 214 231 243 252 261 264 259 260 269 266 264 263 269 264 257 253 253 253 251 253 259 259 260 264 260
230 212 211 232 238 246 242 234 232 226 227 228 213 187 192 213 226 222 228 232 238 254 269 283 277 261 247 235 234 242 253 259 257 262 263 259 256 259 261 257 261 265 265
251 231 221 225 210 216 235 244 243 235 229 226 207 211 214 239 247 238 233 229 232 229 253 280 293 285 275 251 244 251 264 274 277 277 276 272 261 257 262 260 264 270 272
250 247 242 233 218 194 221 239 239 231 227 229 226 207 224 249 256 255 252 245 234 263 286 298 294 296 314 308 276 260 260 269 271 269 273 275 273 269 266 262 260 267 266
250 244 244 245 222 211 232 247 255 258 250 252 255 241 228 244 265 259 261 271 272 275 290 310 301 300 310 330 314 289 285 290 287 283 271 270 270 270 266 263 259 258 258
251 250 250 257 236 228 237 246 263 275 267 264 265 267 254 235 252 267 275 270 271 265 270 290 310 324 333 336 328 333 8 19 344 313 289 273 270 270 274 273 267 264 255
278 281 261 237 243 225 219 237 284 295 272 264 258 249 264 258 255 261 267 271 260 260 259 249 253 313 324 341 353 5 24 35 2 320 292 274 270 267 274 272 272 264 258
Height
1506 1508 1510 1511 1513 1514 1515 1517 1517 1518 1519 1519 1520 1521 1521 1521 1521 1522 1522 1522 1522 1522 1522 1522 1522 1522 1522 1522 1522 1522 1522 1522 1521 1521 1521 1521 1521 1520 1520 1519 1519 1519 1519
1504 1506 1508 1509 1511 1512 1513 1514 1515 1516 1516 1517 1518 1518 1519 1519 1519 1520 1520 1520 1520 1520 1520 1520 1520 1520 1520 1520 1520 1520 1520 1520 1520 1519 1518 1519 1518 1518 1518 1517 1517 1517 1517
1501 1504 1506 1507 1508 1510 1511 1512 1513 1514 1514 1515 1516 1516 1517 1517 1517 1518 1518 1518 1518 1517 1517 1517 1517 1518 1518 1518 1517 1517 1517 1518 1517 1517 1516 1516 1516 1516 1515 1515 1515 1515 1514
1499 1502 1503 1505 1506 1507 1509 1510 1511 1511 1512 1513 1513 1514 1515 1515 1515 1515 1516 1516 1516 1516 1516 1515 1515 1515 1515 1515 1515 1515 1515 1515 1515 1515 1514 1514 1513 1513 1513 1512 1512 1512 1512
1498 1500 1501 1502 1504 1505 1506 1507 1508 1509 1510 1511 1511 1511 1512 1512 1512 1513 1513 1513 1513 1513 1513 1513 1513 1513 1512 1512 1512 1511 1511 1512 1512 1512 1511 1511 1510 1510 1510 1510 1509 1509 1509
1496 1498 1499 1500 1501 1502 1503 1504 1506 1507 1508 1508 1508 1509 1509 1510 1510 1510 1510 1511 1511 1511 1511 1511 1511 1510 1510 1510 1509 1509 1508 1509 1509 1509 1508 1508 1508 1508 1507 1507 1507 1507 1506
1494 1495 1497 1498 1499 1500 1501 1502 1503 1504 1505 1505 1505 1506 1506 1507 1507 1507 1507 1507 1508 1508 1508 1508 1508 1508 1507 1507 1507 1506 1506 1506 1506 1506 1505 1505 1505 1505 1505 1504 1504 1504 1503
1492 1493 1495 1496 1497 1498 1498 1499 1500 1501 1502 1502 1502 1503 1503 1504 1504 1504 1504 1504 1505 1505 1505 1505 1505 1505 1504 1504 1504 1503 1502 1502 1502 1502 1502 1502 1502 1502 1502 1501 1501 1500 1500
1489 1490 1492 1493 1494 1495 1496 1497 1498 1498 1499 1499 1499 1500 1500 1501 1501 1501 1502 1501 1502 1502 1502 1502 1502 1502 1502 1502 1501 1500 1499 1499 1499 1499 1499 1499 1499 1499 1499 1498 1498 1498 1497
1487 1488 1489 1490 1491 1492 1493 1494 1495 1495 1496 1496 1496 1497 1497 1497 1498 1498 1499 1499 1499 1500 1500 1500 1500 1500 1499 1499 1498 1497 1496 1496 1496 1495 1495 1495 1495 1495 1495 1495 1495 1495 1494
1484 1485 1486 1487 1488 1489 1490 1491 1492 1492 1493 1493 1493 1494 1494 1494 1495 1495 1495 1496 1496 1497 1497 1497 1497 1496 1496 1496 1495 1495 1494 1494 1493 1493 1492 1492 1492 1492 1492 1492 1492 1492 1491
1482 1483 1484 1484 1486 1487 1487 1488 1489 1490 1490 1490 1490 1491 1491 1491 1492 1492 1492 1493 1493 1494 1494 1494 1493 1493 1493 1493 1492 1492 1491 1491 1491 1491 1490 1489 1489 1489 1489 1489 1489 1489 1488
1479 1480 1481 1482 1483 1484 1485 1485 1486 1487 1487 1488 1488 1489 1489 1489 1489 1489 1489 1490 1490 1491 1491 1491 1491 1490 1490 1490 1490 1489 1489 1488 1489 1488 1487 1487 1487 1487 1487 1487 1487 1486 1486
1477 1478 1479 1480 1481 1482 1482 1483 1484 1484 1485 1485 1485 1486 1486 1486 1486 1485 1486 1487 1487 1487 1487 1487 1488 1487 1487 1487 1487 1486 1486 1486 1486 1486 1485 1485 1485 1485 1484 1484 1483 1483 1482
1475 1476 1477 1478 1478 1479 1480 1480 1480 1481 1482 1482 1482 1482 1482 1482 1482 1483 1483 1483 1483 1484 1484 1484 1484 1484 1484 1484 1484 1484 1483 1483 1483 1483 1483 1483 1483 1482 1482 1482 1481 1480 1480
1472 1473 1474 1475 1476 1476 1477 1477 1477 1478 1478 1479 1479 1479 1479 1480 1480 1480 1480 1480 1481 1481 1481 1481 1481 1481 1481 1481 1481 1481 1481 1480 1480 1480 1480 1480 1480 1480 1479 1479 1479 1478 1478
1470 1470 1471 1472 1473 1474 1474 1474 1474 1474 1475 1475 1476 1476 1477 1477 1477 1477 1477 1478 1478 1478 1478 1478 1478 1478 1478 1478 1478 1478 1477 1477 1478 1478 1477 1477 1477 1477 1477 1476 1476 1475 1475
1467 1468 1468 1469 1470 1471 1471 1472 1472 1471 1471 1472 1473 1473 1474 1474 1474 1474 1474 1475 1474 1475 1475 1475 1475 1475 1475 1475 1475 1475 1475 1474 1474 1474 1474 1474 1474 1474 1473 1473 1473 1473 1472
1464 1465 1465 1466 1467 1468 1469 1469 1469 1469 1469 1469 1470 1470 1471 1471 1471 1471 1471 1471 1471 1472 1472 1472 1472 1472 1472 1472 1472 1471 1471 1471 1471 1471 1471 1471 1471 1471 1470 1470 1470 1470 1470
1462 1462 1463 1463 1464 1465 1466 1466 1466 1467 1467 1467 1467 1467 1468 1468 1468 1468 1468 1468 1468 1468 1469 1469 1469 1469 1468 1468 1468 1468 1467 1467 1467 1467 1467 1467 1467 1468 1468 1467 1467 1467 1466
1460 1460 1461 1461 1462 1463 1463 1464 1464 1464 1464 1464 1464 1464 1465 1465 1465 1465 1465 1465 1465 1465 1465 1465 1465 1465 1465 1465 1465 1464 1464 1464 1464 1463 1463 1463 1464 1464 1464 1464 1464 1464 1463
1458 1458 1459 1459 1459 1460 1461 1461 1462 1461 1461 1462 1461 1462 1461 1462 1462 1462 1462 1462 1462 1462 1462 1462 1462 1462 1462 1462 1461 1461 1460 1460 1460 1459 1459 1460 1460 1460 1460 1461 1460 1460 1460
1456 1456 1457 1457 1457 1457 1458 1458 1458 1458 1458 1459 1459 1458 1458 1458 1458 1459 1459 1459 1459 1459 1459 1458 1458 1458 1458 1458 1457 1457 1456 1456 1456 1456 1456 1456 1456 1456 1457 1457 1457 1457 1457
1453 1454 1454 1455 1455 1455 1455 1456 1456 1456 1456 1456 1456 1455 1455 1454 1455 1455 1455 1455 1455 1455 1455 1454 1454 1454 1454 1454 1453 1453 1452 1452 1452 1452 1452 1452 1452 1452 1453 1453 1453 1453 1453
1451 1452 1452 1452 1452 1453 1453 1453 1453 1453 1453 1453 1453 1453 1452 1452 1451 1452 1452 1451 1451 1451 1451 1451 1450 1450 1450 1449 1449 1448 1448 1447 1447 1447 1447 1448 1448 1448 1449 1449 1449 1450 1450
1449 1449 1450 1450 1450 1450 1451 1451 1451 1451 1451 1451 1450 1450 1449 1449 1449 1448 1448 1448 1447 1447 1447 1447 1446 1446 1446 1445 1445 1444 1443 1443 1443 1443 1443 1443 1443 1444 1444 1444 1445 1445 1446